User: anonymous   Login
Location: Hamilton
(37.7830°S, 175.2830°E)
Time: 14:37:15
(UTC+13:00)
Language:

Cosmos 1386 Rocket - Orbit

View from above orbital plane
View from above orbital plane
View from above satellite
View from above satellite

Ground track
Ground track

The orbit data is extracted from the following two-line orbital elements,

1 13354U 82069B   19077.86033285 -.00000013  00000-0 -27802-4 0  9999
2 13354  82.9595 225.3324 0052939 133.7637 226.7921 13.78879175845940
Epoch (UTC): 18 March 2019 20:38:52
Eccentricity: 0.0052939
inclination: 82.9595°
perigee height: 929 km
apogee height: 1007 km
right ascension of ascending node: 225.3324°
argument of perigee: 133.7637°
revolutions per day: 13.78879175
mean anomaly at epoch: 226.7921°
orbit number at epoch: 84594

The dashed part of the orbit path shows where the satellite is in the earth's shadow,  

DLR